Weather History for Harlan, KY

Change the Weather History Date:

Monday, December 3, 2012

  Actual Average (KLOZ) Record (KLOZ)
Temperature  
Mean Temperature 60 °F 42 °F  
Max Temperature 71 °F 51 °F 77 °F (1982)
Min Temperature 50 °F 32 °F 13 °F (1979)
Degree Days  
Heating Degree Days 4 23  
Month to date heating degree days 69  
Since 1 July heating degree days 899  
Cooling Degree Days 0 0  
Month to date cooling degree days 0  
Growing Degree Days 10 (Base 50)    
Moisture  
Dew Point 47 °F    
Average Humidity 65    
Maximum Humidity 88    
Minimum Humidity 41    
Precipitation  
Precipitation 0.00 in 0.15 in 2.22 in (1990)
Month to date precipitation 0.43  
Sea Level Pressure  
Sea Level Pressure 30.24 in    
Wind  
Wind Speed 1 mph ()    
Max Wind Speed 7 mph    
Max Gust Speed -    
Visibility 10.0 miles    
Events      
T = Trace of Precipitation, MM = Missing Value Source: Averaged Metar Reports

Daily Weather History Graph

Daily Weather History Graph

Search for Another Location

Airport:

Trip Planner

Search our weather history database for the weather conditions in past years. The results will help you decide how hot, cold, wet, or windy it might be!

Date:

Astronomy

Dec. 03, 2012 Rise Set
Actual Time 7:29 AM EST 5:16 PM EST
Civil Twilight 7:01 AM EST 5:45 PM EST
Nautical Twilight 6:29 AM EST 6:17 PM EST
Astronomical Twilight 5:57 AM EST 6:48 PM EST
Moon 9:58 PM EST (12/3) 10:56 AM EST (12/3)
Length of Visible Light 10h 44m
Length of Day
9h 46m
Waning Gibbous, 78% of the Moon is Illuminated
Dec 3
Waning Gibbous
Dec 6
Last Quarter
Dec 13
New
Dec 20
First Quarter
Dec 28
Full

Hourly Weather History & Observations

Time (EST) Temp. Dew Point Humidity Pressure Visibility Wind Dir Wind Speed Gust Speed Precip Events Conditions
12:15 AM 60.8 °F 46.4 °F 59% 30.25 in 10.0 mi Calm Calm - N/A   Overcast
12:35 AM 60.8 °F 46.4 °F 59% 30.25 in 10.0 mi Calm Calm - N/A   Overcast
12:55 AM 60.8 °F 46.4 °F 59% 30.25 in 10.0 mi Calm Calm - N/A   Overcast
1:15 AM 60.8 °F 46.4 °F 59% 30.25 in 10.0 mi Calm Calm - N/A   Overcast
1:55 AM 59.0 °F 48.2 °F 67% 30.25 in 10.0 mi Calm Calm - N/A   Overcast
2:15 AM 59.0 °F 46.4 °F 63% 30.25 in 10.0 mi Calm Calm - N/A   Overcast
2:35 AM 57.2 °F 48.2 °F 72% 30.26 in 10.0 mi Calm Calm - N/A   Overcast
2:55 AM 57.2 °F 46.4 °F 67% 30.26 in 10.0 mi Calm Calm - N/A   Overcast
3:15 AM 57.2 °F 48.2 °F 72% 30.26 in 10.0 mi Calm Calm - N/A   Overcast
3:35 AM 55.4 °F 48.2 °F 77% 30.25 in 10.0 mi Calm Calm - N/A   Overcast
3:55 AM 55.4 °F 48.2 °F 77% 30.25 in 10.0 mi Calm Calm - N/A   Overcast
4:15 AM 57.2 °F 48.2 °F 72% 30.26 in 10.0 mi Calm Calm - N/A   Overcast
4:35 AM 55.4 °F 48.2 °F 77% 30.26 in 10.0 mi Calm Calm - N/A   Overcast
4:55 AM 55.4 °F 48.2 °F 77% 30.25 in 10.0 mi Calm Calm - N/A   Overcast
5:15 AM 55.4 °F 48.2 °F 77% 30.25 in 10.0 mi Calm Calm - N/A   Overcast
5:35 AM 53.6 °F 48.2 °F 82% 30.26 in 10.0 mi Calm Calm - N/A   Scattered Clouds
5:55 AM 53.6 °F 48.2 °F 82% 30.26 in 10.0 mi Calm Calm - N/A   Scattered Clouds
6:15 AM 53.6 °F 48.2 °F 82% 30.26 in 10.0 mi Calm Calm - N/A   Mostly Cloudy
6:35 AM 53.6 °F 48.2 °F 82% 30.27 in 10.0 mi Calm Calm - N/A   Overcast
7:35 AM 51.8 °F 48.2 °F 88% 30.28 in 10.0 mi North - - N/A   Overcast
7:55 AM 51.8 °F 46.4 °F 82% 30.28 in 10.0 mi Calm Calm - N/A   Mostly Cloudy
8:15 AM 51.8 °F 46.4 °F 82% 30.29 in 10.0 mi Calm Calm - N/A   Scattered Clouds
8:35 AM 51.8 °F 48.2 °F 88% 30.29 in 10.0 mi Calm Calm - N/A   Clear
8:55 AM 53.6 °F 48.2 °F 82% 30.29 in 10.0 mi Calm Calm - N/A   Clear
9:15 AM 55.4 °F 50.0 °F 82% 30.30 in 10.0 mi Calm Calm - N/A   Clear
9:35 AM 57.2 °F 48.2 °F 72% 30.30 in 10.0 mi North - - N/A   Clear
9:55 AM 59.0 °F 48.2 °F 67% 30.30 in 10.0 mi Calm Calm - N/A   Clear
10:15 AM 60.8 °F 50.0 °F 68% 30.30 in 10.0 mi Calm Calm - N/A   Clear
10:35 AM 62.6 °F 50.0 °F 63% 30.30 in 10.0 mi Calm Calm - N/A   Clear
10:55 AM 64.4 °F 50.0 °F 59% 30.29 in 10.0 mi Calm Calm - N/A   Clear
11:15 AM 66.2 °F 50.0 °F 56% 30.28 in 10.0 mi Calm Calm - N/A   Clear
11:35 AM 68.0 °F 50.0 °F 52% 30.28 in 10.0 mi Calm Calm - N/A   Clear
11:55 AM 66.2 °F 48.2 °F 52% 30.27 in 10.0 mi West 6.9 mph - N/A   Scattered Clouds
12:15 PM 66.2 °F 48.2 °F 52% 30.26 in 10.0 mi WSW 4.6 mph - N/A   Scattered Clouds
12:35 PM 68.0 °F 48.2 °F 49% 30.24 in 10.0 mi Calm Calm - N/A   Clear
12:55 PM 68.0 °F 48.2 °F 49% 30.24 in 10.0 mi Calm Calm - N/A   Scattered Clouds
1:15 PM 69.8 °F 46.4 °F 43% 30.23 in 10.0 mi SW 5.8 mph - N/A   Mostly Cloudy
1:35 PM 71.6 °F 46.4 °F 41% 30.23 in 10.0 mi Calm Calm - N/A   Mostly Cloudy
1:55 PM 69.8 °F 46.4 °F 43% 30.22 in 10.0 mi NE 3.5 mph - N/A   Scattered Clouds
2:15 PM 71.6 °F 46.4 °F 41% 30.21 in 10.0 mi Calm Calm - N/A   Clear
2:35 PM 69.8 °F 46.4 °F 43% 30.20 in 10.0 mi SSE 4.6 mph - N/A   Clear
2:55 PM 69.8 °F 46.4 °F 43% 30.20 in 10.0 mi SSW 3.5 mph - N/A   Scattered Clouds
3:15 PM 69.8 °F 46.4 °F 43% 30.20 in 10.0 mi SSE 3.5 mph - N/A   Scattered Clouds
3:35 PM 69.8 °F 46.4 °F 43% 30.20 in 10.0 mi Calm Calm - N/A   Scattered Clouds
3:55 PM 69.8 °F 46.4 °F 43% 30.20 in 10.0 mi Calm Calm - N/A   Scattered Clouds
4:15 PM 68.0 °F 46.4 °F 46% 30.20 in 10.0 mi Calm Calm - N/A   Clear
4:35 PM 68.0 °F 46.4 °F 46% 30.21 in 10.0 mi Calm Calm - N/A   Clear
4:55 PM 66.2 °F 46.4 °F 49% 30.21 in 10.0 mi SE 4.6 mph - N/A   Clear
5:15 PM 64.4 °F 46.4 °F 52% 30.20 in 10.0 mi SSE 3.5 mph - N/A   Clear
5:35 PM 64.4 °F 46.4 °F 52% 30.20 in 10.0 mi Calm Calm - N/A   Clear
5:55 PM 64.4 °F 46.4 °F 52% 30.21 in 10.0 mi Calm Calm - N/A   Clear
6:15 PM 62.6 °F 46.4 °F 55% 30.21 in 10.0 mi Calm Calm - N/A   Clear
6:35 PM 62.6 °F 46.4 °F 55% 30.22 in 10.0 mi Calm Calm - N/A   Clear
6:55 PM 60.8 °F 46.4 °F 59% 30.22 in 10.0 mi Calm Calm - N/A   Clear
7:15 PM 59.0 °F 46.4 °F 63% 30.22 in 10.0 mi Calm Calm - N/A   Clear
7:35 PM 59.0 °F 46.4 °F 63% 30.22 in 10.0 mi Calm Calm - N/A   Clear
8:15 PM 55.4 °F 46.4 °F 72% 30.23 in 10.0 mi Calm Calm - N/A   Clear
8:35 PM 55.4 °F 46.4 °F 72% 30.23 in 10.0 mi Calm Calm - N/A   Clear
8:55 PM 53.6 °F 46.4 °F 77% 30.23 in 10.0 mi ESE 5.8 mph - N/A   Clear
9:15 PM 53.6 °F 46.4 °F 77% 30.24 in 10.0 mi East 4.6 mph - N/A   Clear
9:35 PM 51.8 °F 46.4 °F 82% 30.23 in 10.0 mi ESE 6.9 mph - N/A   Clear
9:55 PM 51.8 °F 46.4 °F 82% 30.22 in 10.0 mi Calm Calm - N/A   Mostly Cloudy
10:15 PM 51.8 °F 46.4 °F 82% 30.22 in 10.0 mi SE 4.6 mph - N/A   Scattered Clouds
10:35 PM 51.8 °F 46.4 °F 82% 30.22 in 10.0 mi Calm Calm - N/A   Clear
10:55 PM 51.8 °F 46.4 °F 82% 30.23 in 10.0 mi North - - N/A   Clear
11:15 PM 51.8 °F 46.4 °F 82% 30.23 in 10.0 mi Calm Calm - N/A   Clear
11:35 PM 50.0 °F 44.6 °F 82% 30.23 in 10.0 mi Calm Calm - N/A   Scattered Clouds
11:55 PM 50.0 °F 44.6 °F 82% 30.23 in 10.0 mi Calm Calm - N/A   Clear